[[{"header":{"parameterUnit":"m.s-1","parameterCategory":1,"la1":30.2991,"la2":30.254,"lo1":-89.0895,"lo2":-89.0444,"dy":0.0017,"dx":0.0017,"nx":28,"ny":28,"refTime":"2024-09-28T09:00:00:Z","depth":0,"parameterNumber":2,"parameterNumberName":"U-component_of_WINDS"},"data":[0,0,0,0,0,0,0,0,0,0,0,0,0,0,0,0,0,0,0,0,0,0,0,0,0,0,0,0,0,0,0,0,0,0,0,0,0,0,0,0,0,0,0,0,0,0,0,0,0,0,0,0,0,0,0,0,0,0,5.5616,5.5618,0,5.5881,5.5884,5.5887,5.582,5.5815,5.5809,5.5804,5.6081,5.6093,5.6105,0,0,0,0,0,0,0,0,0,0,0,0,0,5.5052,5.5062,5.5615,5.5619,5.5622,5.5881,5.5885,5.5888,5.5821,5.5814,5.5808,5.5802,5.6077,5.6092,5.6106,0,0,0,0,0,0,0,0,0,0,0,0,0,5.5305,5.5066,5.5615,5.5619,5.5622,5.588,5.5885,5.5889,5.5822,5.5814,5.5806,5.5799,5.6072,5.609,5.6108,5.6379,0,0,5.6164,5.6172,0,0,0,0,0,0,0,0,5.5291,5.5326,5.5615,5.562,5.5623,5.5809,5.5787,5.6054,5.5824,5.5747,5.5804,5.5795,5.5997,5.6021,5.6089,5.6392,5.6404,5.6166,5.6177,5.6185,5.619,0,0,0,0,0,0,0,5.5273,5.5314,5.5721,5.562,5.5625,5.5609,5.5636,5.5837,5.5913,5.5753,5.5748,5.5781,5.5998,5.6071,5.6095,5.6408,5.6166,5.6182,5.6193,5.62,5.6945,5.6953,0,0,0,0,0,0,5.5252,5.53,5.5712,5.5729,5.5434,5.5626,5.5656,5.5758,5.591,5.5926,5.5787,5.5776,5.6044,5.6073,5.6104,5.6429,5.6185,5.6202,5.6213,5.6936,5.6946,5.6956,0,0,0,0,0,0,5.524,5.529,5.5702,5.5513,5.5564,5.5644,5.5758,5.5767,5.584,5.5936,5.595,5.5848,5.6039,5.6078,5.631,5.6438,5.621,5.6227,5.6926,5.6939,5.6951,5.7083,0,0,0,0,0,0,5.5224,5.5286,5.5389,5.5516,5.5575,5.5903,5.5766,5.5778,5.5871,5.586,5.5997,5.6012,5.6035,5.6283,5.6329,5.6459,5.6241,5.6914,5.6932,5.6947,5.7068,5.7099,5.7126,0,0,0,0,0,5.5205,5.5417,5.5394,5.5445,5.5705,5.591,5.5944,5.5966,5.5882,5.5986,5.6048,5.6008,5.6417,5.6308,5.6358,5.6496,5.6907,5.6927,5.6946,5.7054,5.7093,5.7125,0,0,0,0,0,0,5.5305,5.5434,5.541,5.567,5.5779,5.5898,5.6031,5.6006,5.6143,5.6126,5.6149,5.618,5.6417,5.648,5.6356,5.6765,5.665,5.668,5.6715,5.6752,5.6781,5.676,5.6257,0,0,0,0,0,5.5356,5.5511,5.5616,5.5835,5.5891,5.5952,5.6042,5.6049,5.6164,5.621,5.6289,5.6403,5.6557,5.6658,5.6806,5.7077,5.7105,5.7196,5.7225,5.7249,5.7275,5.7421,5.7462,5.7021,5.702,5.702,0,0,5.5466,5.5556,5.5652,5.5857,5.5943,5.6103,5.5991,5.6166,5.6285,5.6237,5.646,5.6522,5.6651,5.6903,5.7018,5.6963,5.7403,5.7274,5.7292,5.7305,5.7445,5.7487,5.7524,5.7034,5.7031,5.7029,0,0,5.5747,5.5831,5.6021,5.6109,5.6239,5.6278,5.6324,5.6447,5.6485,5.6709,5.6676,5.6819,5.7084,5.7176,5.7258,5.7573,5.754,5.762,5.7772,5.7914,5.7949,5.798,5.809,5.813,5.7646,5.7646,5.7647,0,5.5867,5.6105,5.6123,5.63,5.639,5.6353,5.6546,5.663,5.6803,5.6867,5.6803,5.7133,5.7218,5.749,5.7566,5.7634,5.7687,5.7604,5.7942,5.7973,5.8003,5.8108,5.815,5.7655,5.7654,5.7653,5.7652,0,5.6245,5.6412,5.655,5.6715,5.6822,5.7006,5.7052,5.7158,5.7155,5.7201,5.7429,5.7528,5.7694,5.7759,5.776,5.8032,5.7993,5.7936,5.782,5.8053,5.8152,5.8193,5.7668,5.7664,5.7662,5.766,0,0,5.6597,5.6767,5.6818,5.6891,5.7032,5.7161,5.7344,5.7504,5.7594,5.7714,5.7867,5.8092,5.8039,5.8132,5.8142,5.8267,5.8507,5.8194,5.8198,5.8247,5.8811,5.8852,5.8899,5.8487,5.8495,5.8501,5.88,0,5.6888,5.7208,5.7228,5.7517,5.767,5.7636,5.7795,5.7899,5.7946,5.8083,5.8136,5.8294,5.8213,5.8269,5.8391,5.8452,5.8621,5.8431,5.8629,5.8636,5.8596,5.8951,5.8996,5.9272,5.8839,5.8846,5.885,0,5.7271,5.74,5.7704,5.7821,5.7886,5.8028,5.8176,5.8308,5.8425,5.845,5.8553,5.8546,5.8733,5.8611,5.8869,5.874,5.8822,5.8865,5.8876,5.8894,5.8756,5.8977,5.9362,5.9402,5.8912,5.8907,5.8903,0,5.7494,5.7745,5.7958,5.8023,5.8165,5.8266,5.833,5.8439,5.8533,5.8663,5.8724,5.8875,5.8957,5.9074,5.9107,5.9016,5.9364,5.9246,5.9391,5.939,5.9465,5.9459,5.9866,5.9521,5.952,5.9519,5.9518,0,5.7817,5.8004,5.806,5.8192,5.84,5.8422,5.8627,5.8685,5.8782,5.8925,5.8906,5.904,5.9076,5.9217,5.9245,5.9453,5.9492,5.9517,5.9522,5.9518,5.9515,5.9572,5.9553,5.953,5.9528,5.9526,5.9524,0,5.8101,5.8146,5.8376,5.8492,5.8525,5.8673,5.8772,5.8898,5.8942,5.9122,5.9166,5.9236,5.9401,5.9446,5.9645,5.9663,5.9908,5.9896,5.9867,5.9867,6.0008,5.9994,6.0464,6.0526,6.0142,6.0146,6.0149,0,5.8303,5.8445,5.8575,5.8668,5.8736,5.8886,5.8982,5.9009,5.9109,5.9252,5.9361,5.9523,5.9654,5.9919,5.9988,6.0139,6.013,6.0284,6.0152,6.0143,6.013,6.012,6.0133,6.0309,6.0313,6.0316,6.0319,0,5.8656,5.8671,5.8808,5.8954,5.9068,5.9185,5.9296,5.9374,5.9417,5.9531,5.9698,5.9799,6.0,6.0161,6.0313,6.038,6.0357,6.036,6.0401,6.0397,6.0374,6.0387,5.9934,6.0349,6.0346,6.0343,6.0342,6.0341,5.8904,5.9028,5.9138,5.9291,5.9378,5.9482,5.9606,5.9664,5.9804,5.9968,5.9976,6.0157,6.0269,6.0471,6.0546,6.0689,6.0643,6.0703,6.0718,6.0732,6.0743,6.0353,6.0717,6.0716,6.0716,6.0715,6.0714,0,5.9254,5.9322,5.9463,5.9619,5.974,5.9706,5.9827,5.9931,6.009,6.0196,6.0324,6.0515,6.0671,6.0752,6.0906,6.1005,6.0998,6.1044,6.1036,6.1052,6.0776,6.0724,6.1047,6.1047,6.1047,6.1047,6.1046,6.1046,5.945,5.9658,5.9685,5.9935,6.0003,6.0179,6.0251,6.0347,6.0431,6.0645,6.0773,6.0824,6.092,6.1081,6.1222,6.1242,6.1299,6.1351,6.1365,6.1105,6.1071,6.1039,6.099,6.1363,6.1364,6.1628,6.163,6.1632]},{"header":{"parameterUnit":"m.s-1","parameterCategory":1,"la1":30.2991,"la2":30.254,"lo1":-89.0895,"lo2":-89.0444,"dy":0.0017,"dx":0.0017,"nx":28,"ny":28,"refTime":"2024-09-28T09:00:00:Z","depth":0,"parameterNumber":3,"parameterNumberName":"V-component_of_WINDS"},"data":[0,0,0,0,0,0,0,0,0,0,0,0,0,0,0,0,0,0,0,0,0,0,0,0,0,0,0,0,0,0,0,0,0,0,0,0,0,0,0,0,0,0,0,0,0,0,0,0,0,0,0,0,0,0,0,0,0,0,1.7861,1.7861,0,1.7903,1.7903,1.7904,1.7853,1.7852,1.785,1.7848,1.7892,1.7895,1.7898,0,0,0,0,0,0,0,0,0,0,0,0,0,1.7736,1.7739,1.7861,1.7861,1.7862,1.7903,1.7903,1.7904,1.7854,1.7851,1.7849,1.7847,1.7891,1.7895,1.7898,0,0,0,0,0,0,0,0,0,0,0,0,0,1.7786,1.774,1.7861,1.7842,1.784,1.7903,1.7904,1.7904,1.7854,1.7851,1.7849,1.7846,1.789,1.7894,1.7899,1.7982,0,0,1.7912,1.7914,0,0,0,0,0,0,0,0,1.7783,1.779,1.7844,1.7843,1.7842,1.787,1.7876,1.793,1.7855,1.7849,1.7848,1.7845,1.7887,1.7892,1.7906,1.7984,1.7986,1.7913,1.7915,1.7917,1.7918,0,0,0,0,0,0,0,1.778,1.7788,1.7877,1.7845,1.7843,1.7831,1.7835,1.7886,1.7883,1.7849,1.7846,1.7851,1.7886,1.7902,1.7906,1.7987,1.7912,1.7916,1.7919,1.7921,1.8135,1.8138,0,0,0,0,0,0,1.7778,1.7786,1.7876,1.7879,1.7805,1.7835,1.784,1.7864,1.7883,1.7883,1.7854,1.7849,1.7896,1.7901,1.7908,1.8006,1.7917,1.7921,1.7924,1.8132,1.8135,1.8139,0,0,0,0,0,0,1.7776,1.7787,1.7874,1.7831,1.7841,1.7841,1.7868,1.7866,1.7882,1.7886,1.7885,1.787,1.7894,1.7902,1.7964,1.8007,1.7923,1.7927,1.8128,1.8133,1.8137,1.8205,0,0,0,0,0,0,1.7773,1.7786,1.7818,1.7832,1.7844,1.793,1.7871,1.7869,1.7889,1.7883,1.7901,1.7902,1.7892,1.7957,1.7968,1.8012,1.7931,1.8124,1.813,1.8136,1.8199,1.8211,1.8222,0,0,0,0,0,1.7768,1.7836,1.782,1.7831,1.7884,1.7933,1.7939,1.7927,1.7893,1.7925,1.7927,1.7901,1.8,1.7964,1.7976,1.8022,1.8121,1.8128,1.8135,1.8193,1.8209,1.8221,0,0,0,0,0,0,1.7828,1.7838,1.782,1.7895,1.7913,1.7924,1.7964,1.7943,1.7972,1.7965,1.7948,1.7953,1.8019,1.8026,1.7986,1.8103,1.8055,1.8065,1.8096,1.811,1.8121,1.8119,1.7934,0,0,0,0,0,1.785,1.7889,1.7895,1.796,1.797,1.7966,1.7986,1.7975,1.7993,1.8001,1.8008,1.8028,1.8063,1.8087,1.812,1.8199,1.8202,1.8236,1.8247,1.8257,1.8265,1.8307,1.8322,1.8161,1.8161,1.8161,0,0,1.7896,1.7906,1.7931,1.7972,1.7985,1.8026,1.7973,1.8018,1.8048,1.8008,1.8067,1.8073,1.8093,1.8164,1.8195,1.8172,1.831,1.8265,1.8273,1.8277,1.8316,1.8331,1.8344,1.8166,1.8165,1.8164,0,0,1.7999,1.8011,1.8066,1.808,1.81,1.8096,1.8109,1.8123,1.8125,1.8184,1.8154,1.8189,1.8251,1.8266,1.8282,1.839,1.8366,1.8401,1.8462,1.8502,1.8515,1.8526,1.8565,1.8578,1.8409,1.8409,1.841,0,1.8054,1.8114,1.8097,1.8144,1.8163,1.8128,1.8183,1.8197,1.8227,1.8241,1.8214,1.8289,1.8301,1.8374,1.84,1.8414,1.8429,1.8399,1.8514,1.8525,1.8536,1.8572,1.8586,1.8413,1.8413,1.8413,1.8412,0,1.8179,1.8221,1.8263,1.8292,1.8315,1.8366,1.8357,1.8383,1.8368,1.8368,1.8427,1.8439,1.8473,1.8489,1.8477,1.8561,1.8546,1.8517,1.8469,1.8555,1.8589,1.8603,1.8419,1.8418,1.8417,1.8416,0,0,1.8324,1.8342,1.8358,1.837,1.8388,1.842,1.8469,1.8502,1.8524,1.8545,1.8586,1.8638,1.861,1.8628,1.8616,1.8652,1.8736,1.8619,1.8619,1.864,1.883,1.8852,1.8868,1.872,1.8723,1.8725,1.8828,0,1.8428,1.8513,1.8499,1.8581,1.8619,1.8585,1.8627,1.8643,1.8643,1.8675,1.8675,1.8712,1.8673,1.8684,1.8717,1.8719,1.8774,1.8711,1.8758,1.876,1.8755,1.8886,1.891,1.9007,1.8841,1.8844,1.8845,0,1.8562,1.8587,1.8673,1.8684,1.8699,1.8738,1.8766,1.8797,1.8814,1.8811,1.883,1.8811,1.8859,1.881,1.8876,1.8834,1.8852,1.8855,1.8858,1.8863,1.8809,1.8895,1.9038,1.9053,1.8866,1.8864,1.8863,0,1.8659,1.8714,1.8772,1.8784,1.8798,1.8826,1.8833,1.8847,1.8867,1.8892,1.8905,1.8935,1.8952,1.8975,1.8964,1.8929,1.9032,1.8982,1.9032,1.9032,1.9056,1.9055,1.9205,1.9067,1.9066,1.9066,1.9066,0,1.8777,1.8831,1.8816,1.8852,1.8911,1.8893,1.8952,1.8955,1.8968,1.9004,1.8976,1.901,1.8993,1.9026,1.9018,1.9074,1.9081,1.908,1.9078,1.9084,1.9084,1.9096,1.9089,1.907,1.9069,1.9068,1.9068,0,1.8896,1.8888,1.895,1.8958,1.8961,1.9004,1.9011,1.9044,1.9041,1.9087,1.9096,1.9092,1.9129,1.912,1.9161,1.9155,1.9225,1.9214,1.922,1.9217,1.9267,1.9263,1.9431,1.9452,1.93,1.9301,1.9302,0,1.8973,1.9013,1.9025,1.9047,1.9056,1.9092,1.9112,1.9095,1.9117,1.9139,1.9169,1.9204,1.923,1.9291,1.9291,1.9322,1.9311,1.9368,1.9316,1.932,1.9313,1.9311,1.9314,1.9379,1.938,1.9382,1.9383,0,1.9109,1.9103,1.9133,1.9161,1.9186,1.9208,1.9227,1.9246,1.9231,1.9257,1.9294,1.9315,1.9355,1.939,1.9418,1.9425,1.9402,1.9399,1.9412,1.9419,1.9421,1.9421,1.9249,1.9396,1.9394,1.9394,1.9393,1.9392,1.921,1.9244,1.9257,1.9291,1.9303,1.9321,1.9353,1.9353,1.9384,1.9416,1.9404,1.9446,1.946,1.9495,1.9506,1.9539,1.9517,1.9536,1.9541,1.9546,1.9553,1.9415,1.9544,1.9543,1.9543,1.9542,1.9542,0,1.9345,1.9351,1.9383,1.941,1.9436,1.9411,1.943,1.9454,1.9492,1.9507,1.9533,1.9575,1.9608,1.961,1.9641,1.9667,1.9657,1.9675,1.9674,1.9676,1.957,1.9556,1.9683,1.9683,1.9683,1.9683,1.9683,1.9683,1.9418,1.9475,1.947,1.9531,1.9537,1.9578,1.9591,1.9608,1.962,1.9668,1.9695,1.9695,1.9705,1.9736,1.9765,1.9764,1.9777,1.98,1.9796,1.9697,1.9683,1.967,1.9657,1.9803,1.9803,1.9899,1.99,1.99]}]]